STARLINK-5625, 55368

Orbit data source: Space-Track

STARLINK-5625, 55368 is a payload satellite owned by SpaceX/Seattle (US) in LEO that was launched on Thu, 26 Jan 2023 UTC via an FALCON 9 launch vehicle from the Air Force Eastern Test Range (AFETR). Payload-class satellites include a variety of spacecraft equipped with specific instruments for various scientific and technological missions. These include communications satellites like Starlink; space stations such as the ISS; scientific satellites like the Hubble; Earth observation satellites from companies like Planet Labs, Umbra, and HawkEye 360; GPS; miniature CubeSats for education and research; and military/defense satellites.

Loading next visibility...
Identifier
55368, 2023-013AP
Orbit
LEO
Country
Flag of USUS
Related business
Manufacturer
SpaceX/Seattle
Mission
Operational Commercial Communications
Bus & Motor
STARLINK, Unknown motor
Mass
305 kg wet, ~290 kg dry
Launch date (UTC)
2023-01-26 (3 years ago)
Launch vehicle
FALCON 9
Launch site
Air Force Eastern Test Range (AFETR)
Object type
Payload
Rocket body
Debris
Shape & HBR
Box + 1 Pan, 10.1 m
Radar Cross Section
13.562 m², Large (>1 m²)

Expand to show TLE details & history
Last TLE update: 19 hours ago

TLE from 19 hours ago
0 STARLINK-5625
1 55368U 23013AP  25348.81173817  .00000961  00000-0  86185-4 0  9992
2 55368  43.0041  28.3477 0001270 268.6543  91.4153 15.02537107159094
Epoch: 2025-12-14T19:28Z
TLE epoch observation values (Epoch: 2025-12-14T19:28:54.177Z)
Latitude
-0.0001°
Longitude
12.40256°
Altitude
558.876 km
Speed
7.584 km/s
True Right ascension
01h 53m 23s
True Declination
0° 00' 00"
Sunlit
Object was in full shadow at epoch
Visualization orbit readout
Latitude
Unknown
Longitude
Unknown
Altitude
Unknown
Speed
Unknown
Apparent Right ascension
Unknown
Apparent Declination
Unknown
Sunlit
N/A
Visualization observer readout
Local Sidereal Time
13:22:56
Azimuth
Unknown
Elevation
Unknown
Doppler factor
Unknown
Orbital elements
Apogee altitude
561.881 km
Perigee altitude
560.118 km
Semi-major axis
6,939.136 km
Eccentricity
0.00013
Inclination
43.0041°
RAAN
28.3477°
Arg. of periapsis
268.6543°
True anomaly
91.42985°
Mean anomaly
91.4153°
Eccentric anomaly
91.42257°
Mean motion
3.75478 °/min
Orbital period
95.88 mins
BSTAR
0.000086185
Loading maneuver chart data...
Computing Atmospheric mass density...
Loading historical data...
Loading historical data...
Loading historical data...
Loading historical data...
Loading historical data...
Loading historical data...
Loading historical data...

Documentation

Showing up to 5 results
|